Showing default

LEMUR 2 PETERG, 42841

Orbit data source: Space-Track

LEMUR 2 PETERG, 42841 is a payload satellite owned by Spire (US) in SSO that was launched on Fri, 14 Jul 2017 UTC via a SOYUZ-2-1A launch vehicle from the Tyuratam Missile And Space Complex (TTMTR). Payload-class satellites include a variety of spacecraft equipped with specific instruments for various scientific and technological missions. These include communications satellites like Starlink; space stations such as the ISS; scientific satellites like the Hubble; Earth observation satellites from companies like Planet Labs, Umbra, and HawkEye 360; GPS; miniature CubeSats for education and research; and military/defense satellites.

Loading next visibility...
Identifier
42841, 2017-042S
Orbit
SSO
Country
Flag of USUS
Related business
Manufacturer
Spire/Glasgow
Mission
Operational Commercial Com/MetRO
Bus & Motor
CUBESAT 3U, Unknown motor
Mass
4 kg wet, 4 kg dry
Launch date (UTC)
2017-07-14 (8 years ago)
Launch vehicle
SOYUZ-2-1A
Launch site
Tyuratam Missile And Space Complex (TTMTR)
Object type
Payload
Rocket body
Debris
Shape & HBR
Box, 0.5 m
Radar Cross Section
0.093 m², Small (<0.1 m²)

Expand to show TLE details & history
Last TLE update: 9 hours ago

TLE from 9 hours ago
0 LEMUR 2 PETERG
1 42841U 17042S   25307.75457513  .00020236  00000-0  85197-3 0  9993
2 42841  97.3930 129.1858 0005466  63.9938 296.1861 15.23382853453998
Epoch: 2025-11-03T18:06Z
TLE epoch observation values (Epoch: 2025-11-03T18:06:35.291Z)
Latitude
-0.00005°
Longitude
174.28735°
Altitude
497.084 km
Speed
7.617 km/s
True Right ascension
08h 36m 44s
True Declination
0° 00' 00"
Sunlit
Object was in daylight at epoch
Visualization orbit readout
Latitude
Unknown
Longitude
Unknown
Altitude
Unknown
Speed
Unknown
Apparent Right ascension
Unknown
Apparent Declination
Unknown
Sunlit
N/A
Visualization observer readout
Local Sidereal Time
23:24:01
Azimuth
Unknown
Elevation
Unknown
Doppler factor
Unknown
Orbital elements
Apogee altitude
496.362 km
Perigee altitude
488.851 km
Semi-major axis
6,870.743 km
Eccentricity
0.00055
Inclination
97.393°
RAAN
129.1858°
Arg. of periapsis
63.9938°
True anomaly
296.12988°
Mean anomaly
296.1861°
Eccentric anomaly
296.15799°
Mean motion
3.81099 °/min
Orbital period
94.46 mins
BSTAR
0.00085197
Loading maneuver chart data...
Computing Atmospheric mass density...
Loading historical data...
Loading historical data...
Loading historical data...
Loading historical data...
Loading historical data...
Loading historical data...
Loading historical data...

Documentation

Showing up to 5 results
|